星链-2347 (STARLINK-2347 )

导读 | 豆包AI

STARLINK-2347是美国太空探索技术公司(SpaceX)星链卫星互联网项目的组网卫星,于2021年3月11日发射入轨,属于Starlink Group V1系列卫星,承载卫星互联网组网任务,通过低轨布局,为全球提供宽带互联网接入服务,助力星链系统通信覆盖能力的拓展。

Basic Information
目录编号:
47795
目录名称:
STARLINK-2347
国际标识:
2021-018J
轨道中心:
EARTH
卫星名称:
星链-2347
卫星全名:
星链-2347 (STARLINK-2347 )
卫星状态:
已陨落 最后检测时间 2025-01-06
发射日期:
2021-03-11 UTC
国别 :
美国 (US)
星等 :
--
Orbit Information
数据来源 国际轨道数据
星历时间: 2025-01-06T14:25:54+0800
轨道信息已过期432天
半长轴: 6555.148km
偏心率: 0.0004842
轨道倾角: 53.025°
近地点辐角 249.663°
升交点赤经 333.343°
平近点角 219.690°
近地点: 173.838km
远地点: 180.188km
周期: 88.031分钟
每日圈数: 16.357956
Detailed Information
固有亮度:
5
最大亮度:
2.5
卫星平台:
Starlink V1.0
覆盖范围:
全球
运营商:
太空探索技术公司
运营商所在国:
美国
制造商(研发单位):
太空探索技术公司
制造商所在国:
美国
使用方式:
暂无
Satellite Introduction
星链(Starlink)计划是由太空探索技术公司(SpaceX)提出的一个巨型低轨卫星互联网星座项目,计划在2019年至2024年间在太空搭建由约1.2万颗卫星组成的“星链”网络,其中1584颗将部署在地球上空550千米处的近地轨道,并从2020年开始工作。该卫星仍在工作。